Orbital Elements
Epoch 2015 June 27.0 TT = JDT 2457200.5
T 2015 June 13.27188 TT Rudenko
q 1.3169825 (2000.0) P Q
n 0.17750071 Peri. 320.13192 +0.03031633 -0.98808114
a 3.1357107 Node 127.59771 +0.95876132 -0.01394150
e 0.5800051 Incl. 10.98073 +0.28259096 +0.15330132
P 5.55
From 813 observations 2009 Aug. 26-2020 Aug. 22, mean residual 0".6.
|